[[{"header":{"parameterUnit":"m.s-1","parameterCategory":1,"la1":30.2991,"la2":30.254,"lo1":-89.0895,"lo2":-89.0444,"dy":0.0017,"dx":0.0017,"nx":28,"ny":28,"refTime":"2024-07-14T09:00:00:Z","depth":0,"parameterNumber":2,"parameterNumberName":"U-component_of_WINDS"},"data":[0,0,0,0,0,0,0,0,0,0,0,0,0,0,0,0,0,0,0,0,0,0,0,0,0,0,0,0,0,0,0,0,0,0,0,0,0,0,0,0,0,0,0,0,0,0,0,0,0,0,0,0,0,0,0,0,0,0,1.9196,1.9196,0,1.9208,1.9208,1.9208,1.9227,1.9228,1.9228,1.9229,1.9235,1.9235,1.9235,0,0,0,0,0,0,0,0,0,0,0,0,0,1.9188,1.9188,1.9196,1.9196,1.9197,1.9208,1.9208,1.9208,1.9227,1.9228,1.9228,1.9229,1.9235,1.9235,1.9235,0,0,0,0,0,0,0,0,0,0,0,0,0,1.9195,1.9188,1.9196,1.9208,1.9209,1.9208,1.9208,1.9208,1.9227,1.9228,1.9228,1.9229,1.9235,1.9235,1.9235,1.9222,0,0,1.9234,1.9234,0,0,0,0,0,0,0,0,1.9194,1.9195,1.9206,1.9207,1.9208,1.9217,1.9207,1.9212,1.9227,1.922,1.9229,1.9229,1.9228,1.9229,1.9229,1.9222,1.9222,1.9234,1.9234,1.9234,1.9234,0,0,0,0,0,0,0,1.9194,1.9195,1.9201,1.9206,1.9207,1.9211,1.9213,1.9208,1.9221,1.9221,1.9222,1.9224,1.9229,1.923,1.923,1.9222,1.9234,1.9234,1.9234,1.9234,1.9205,1.9205,0,0,0,0,0,0,1.9192,1.9194,1.92,1.9201,1.9203,1.9211,1.9213,1.9213,1.9221,1.9223,1.9223,1.9224,1.923,1.923,1.923,1.9215,1.9234,1.9234,1.9233,1.9206,1.9205,1.9205,0,0,0,0,0,0,1.9192,1.9193,1.92,1.9198,1.9199,1.9211,1.9211,1.9213,1.9214,1.9223,1.9225,1.9222,1.923,1.923,1.9224,1.9215,1.9233,1.9233,1.9207,1.9206,1.9205,1.9185,0,0,0,0,0,0,1.9192,1.9192,1.9188,1.9198,1.9199,1.9194,1.9211,1.9213,1.9214,1.9216,1.9222,1.9223,1.9231,1.9224,1.9224,1.9215,1.9233,1.9207,1.9206,1.9205,1.9186,1.9183,1.9181,0,0,0,0,0,1.9191,1.9181,1.9188,1.9188,1.9194,1.9194,1.9195,1.9205,1.9213,1.9208,1.9214,1.9223,1.9217,1.9224,1.9223,1.9214,1.9208,1.9207,1.9205,1.9187,1.9184,1.9181,0,0,0,0,0,0,1.9167,1.9182,1.919,1.9182,1.9187,1.9197,1.9191,1.9201,1.9202,1.9203,1.9215,1.9216,1.9208,1.9211,1.9218,1.9203,1.9214,1.9212,1.92,1.9197,1.9195,1.9193,1.9233,0,0,0,0,0,1.9162,1.9162,1.9174,1.9166,1.9168,1.918,1.918,1.9188,1.9192,1.9194,1.9199,1.9202,1.9201,1.9199,1.9199,1.9188,1.9189,1.9182,1.9179,1.9177,1.9174,1.9169,1.9165,1.92,1.92,1.92,0,0,1.9148,1.9157,1.9155,1.9161,1.9166,1.9164,1.9181,1.9178,1.9177,1.9193,1.9187,1.9192,1.9196,1.9187,1.9183,1.9189,1.9166,1.9175,1.9173,1.9172,1.9167,1.9164,1.9161,1.9199,1.92,1.92,0,0,1.9124,1.9131,1.9125,1.913,1.9138,1.9146,1.9145,1.9154,1.9158,1.9154,1.9166,1.9164,1.9162,1.9164,1.9165,1.9145,1.9152,1.9144,1.9129,1.9123,1.9121,1.9118,1.911,1.9107,1.9143,1.9142,1.9142,0,1.9106,1.9106,1.912,1.9118,1.912,1.9137,1.9131,1.9134,1.914,1.9141,1.9148,1.9147,1.9151,1.9143,1.9138,1.9139,1.9137,1.9142,1.912,1.9118,1.9116,1.9108,1.9105,1.9141,1.9141,1.9142,1.9142,0,1.9083,1.9083,1.9077,1.9085,1.9087,1.9082,1.9096,1.9095,1.9104,1.9111,1.9106,1.9112,1.9113,1.9113,1.912,1.9106,1.9109,1.9118,1.913,1.9111,1.9104,1.9101,1.914,1.914,1.914,1.9141,0,0,1.904,1.9059,1.9056,1.9061,1.9072,1.9071,1.9068,1.9071,1.907,1.9075,1.9071,1.9071,1.9079,1.9081,1.9089,1.9084,1.9067,1.9094,1.9094,1.9087,1.9051,1.9043,1.9039,1.9073,1.9073,1.9072,1.905,0,1.9016,1.9013,1.9027,1.9019,1.9019,1.9037,1.9034,1.9039,1.9047,1.9047,1.9054,1.9053,1.9066,1.9067,1.9063,1.907,1.9059,1.9072,1.9068,1.9068,1.9065,1.9035,1.9026,1.9005,1.9047,1.9047,1.9047,0,1.8987,1.8993,1.8985,1.8998,1.8999,1.8996,1.9001,1.9001,1.9008,1.9014,1.9017,1.9027,1.9024,1.9037,1.9032,1.904,1.904,1.9043,1.9043,1.9041,1.9054,1.9031,1.8998,1.8994,1.9043,1.9043,1.9043,0,1.8955,1.8961,1.8957,1.896,1.8976,1.8973,1.8979,1.8988,1.8989,1.8993,1.8994,1.8997,1.8998,1.9,1.9011,1.9019,1.9004,1.9018,1.9007,1.9007,1.9001,1.9,1.8966,1.9004,1.9004,1.9004,1.9004,0,1.8925,1.8919,1.8943,1.894,1.8935,1.8952,1.8945,1.8953,1.8961,1.8959,1.8975,1.8973,1.8989,1.8988,1.8997,1.8991,1.8992,1.8995,1.8997,1.8992,1.8992,1.899,1.8991,1.9003,1.9004,1.9004,1.9004,0,1.8886,1.8902,1.8899,1.8916,1.892,1.8915,1.8928,1.8926,1.8936,1.8934,1.8934,1.8949,1.895,1.8962,1.8964,1.897,1.896,1.8965,1.8957,1.8958,1.8946,1.8947,1.8908,1.8903,1.8946,1.8946,1.8946,0,1.8865,1.8862,1.8879,1.888,1.8886,1.8888,1.889,1.8908,1.891,1.8919,1.8916,1.8918,1.8921,1.8921,1.893,1.8933,1.8937,1.8924,1.8937,1.8933,1.8935,1.8934,1.8933,1.8919,1.8919,1.8918,1.8918,0,1.8825,1.8834,1.8838,1.8846,1.8849,1.8855,1.8861,1.8861,1.8881,1.8882,1.8884,1.8886,1.889,1.8892,1.8897,1.8901,1.8912,1.8915,1.8912,1.8906,1.8901,1.8902,1.8947,1.8914,1.8915,1.8915,1.8915,1.8915,1.8793,1.8791,1.8804,1.8808,1.8816,1.8823,1.8822,1.8833,1.8836,1.8842,1.8852,1.8853,1.8861,1.8869,1.8873,1.8873,1.888,1.8876,1.8875,1.8873,1.887,1.8903,1.8874,1.8874,1.8874,1.8874,1.8874,0,1.8753,1.8763,1.8767,1.8777,1.8781,1.8795,1.8804,1.8805,1.8806,1.8814,1.8818,1.882,1.8823,1.8834,1.8838,1.8835,1.8841,1.8836,1.8834,1.8835,1.8864,1.8866,1.8831,1.8831,1.8831,1.8831,1.8831,1.8831,1.8732,1.8729,1.874,1.8742,1.8752,1.8754,1.8758,1.8764,1.8771,1.8774,1.8777,1.8786,1.8795,1.88,1.8803,1.8806,1.8805,1.8798,1.8803,1.8829,1.8833,1.8837,1.8838,1.8799,1.8799,1.8774,1.8773,1.8773]},{"header":{"parameterUnit":"m.s-1","parameterCategory":1,"la1":30.2991,"la2":30.254,"lo1":-89.0895,"lo2":-89.0444,"dy":0.0017,"dx":0.0017,"nx":28,"ny":28,"refTime":"2024-07-14T09:00:00:Z","depth":0,"parameterNumber":3,"parameterNumberName":"V-component_of_WINDS"},"data":[0,0,0,0,0,0,0,0,0,0,0,0,0,0,0,0,0,0,0,0,0,0,0,0,0,0,0,0,0,0,0,0,0,0,0,0,0,0,0,0,0,0,0,0,0,0,0,0,0,0,0,0,0,0,0,0,0,0,2.8183,2.8183,0,2.8234,2.8234,2.8235,2.8202,2.8201,2.8199,2.8198,2.8249,2.8252,2.8255,0,0,0,0,0,0,0,0,0,0,0,0,0,2.8055,2.8057,2.8183,2.8183,2.8184,2.8234,2.8234,2.8235,2.8202,2.8201,2.8199,2.8197,2.8248,2.8252,2.8255,0,0,0,0,0,0,0,0,0,0,0,0,0,2.8108,2.8058,2.8183,2.8174,2.8173,2.8233,2.8234,2.8235,2.8203,2.8201,2.8198,2.8196,2.8247,2.8251,2.8255,2.8327,0,0,2.8268,2.827,0,0,0,0,0,0,0,0,2.8105,2.8113,2.8174,2.8174,2.8174,2.8209,2.8208,2.8266,2.8203,2.8192,2.8198,2.8195,2.8238,2.8242,2.8257,2.8329,2.8331,2.8268,2.8271,2.8273,2.8274,0,0,0,0,0,0,0,2.8102,2.8111,2.8203,2.8175,2.8175,2.8166,2.8171,2.8219,2.8227,2.8193,2.819,2.8197,2.8237,2.8253,2.8258,2.8332,2.8268,2.8272,2.8275,2.8276,2.8461,2.8463,0,0,0,0,0,0,2.8099,2.8108,2.8201,2.8204,2.8134,2.8171,2.8176,2.82,2.8226,2.8228,2.8199,2.8195,2.8247,2.8253,2.826,2.8342,2.8273,2.8277,2.8279,2.8459,2.8462,2.8464,0,0,0,0,0,0,2.8096,2.8108,2.8199,2.8156,2.8166,2.8175,2.8202,2.8203,2.8218,2.8231,2.8232,2.8214,2.8245,2.8254,2.8309,2.8343,2.8279,2.8282,2.8456,2.846,2.8463,2.8509,0,0,0,0,0,0,2.8093,2.8107,2.8135,2.8156,2.8169,2.8249,2.8205,2.8205,2.8226,2.8221,2.8245,2.8247,2.8244,2.8303,2.8314,2.8348,2.8286,2.8453,2.8458,2.8462,2.8504,2.8514,2.8522,0,0,0,0,0,2.8088,2.8146,2.8136,2.8148,2.8204,2.8251,2.8258,2.8254,2.8229,2.8256,2.8264,2.8246,2.8338,2.8309,2.8321,2.8357,2.8451,2.8456,2.8461,2.8501,2.8512,2.8521,0,0,0,0,0,0,2.8129,2.8149,2.8138,2.8205,2.8227,2.8245,2.828,2.8267,2.8296,2.8291,2.8285,2.829,2.8348,2.8358,2.8325,2.8425,2.839,2.8398,2.8416,2.8427,2.8435,2.8431,2.8289,0,0,0,0,0,2.8146,2.8183,2.8198,2.8256,2.8267,2.8272,2.8292,2.8287,2.8309,2.8318,2.833,2.8351,2.8384,2.8407,2.8438,2.8506,2.8509,2.8536,2.8545,2.8552,2.8558,2.8592,2.8603,2.8482,2.8482,2.8482,0,0,2.8181,2.8196,2.822,2.8264,2.828,2.8317,2.828,2.8321,2.8348,2.8324,2.8376,2.8386,2.8409,2.847,2.8498,2.8481,2.8592,2.8559,2.8564,2.8567,2.8598,2.861,2.862,2.8486,2.8485,2.8484,0,0,2.8263,2.828,2.8328,2.8344,2.8368,2.8371,2.8382,2.8403,2.8408,2.846,2.8442,2.8474,2.8533,2.8549,2.8565,2.865,2.8634,2.8661,2.8705,2.8738,2.8747,2.8756,2.8783,2.8794,2.8668,2.8668,2.8668,0,2.8303,2.8359,2.8354,2.8396,2.8415,2.8394,2.8442,2.8458,2.8491,2.8504,2.8485,2.8556,2.857,2.8633,2.8654,2.8669,2.868,2.8658,2.8747,2.8755,2.8763,2.8789,2.88,2.8671,2.867,2.867,2.867,0,2.8406,2.8445,2.848,2.8512,2.8535,2.858,2.858,2.8604,2.8596,2.86,2.8653,2.8669,2.8702,2.8717,2.8711,2.8779,2.8767,2.8747,2.8712,2.8777,2.8801,2.8812,2.8675,2.8674,2.8673,2.8672,0,0,2.8516,2.8542,2.8555,2.8568,2.8592,2.8621,2.8664,2.8696,2.8715,2.8739,2.8773,2.8822,2.8803,2.8821,2.8817,2.8845,2.8908,2.8822,2.8822,2.8835,2.898,2.8993,2.9005,2.8898,2.89,2.8902,2.8977,0,2.8597,2.8671,2.8667,2.8736,2.877,2.875,2.8787,2.8805,2.8809,2.8838,2.8843,2.8877,2.8851,2.8861,2.8889,2.8895,2.8937,2.889,2.8928,2.8929,2.892,2.9018,2.9032,2.9103,2.8987,2.8989,2.899,0,2.8702,2.8727,2.88,2.8816,2.883,2.8863,2.889,2.8919,2.8938,2.8939,2.8958,2.8948,2.8989,2.8954,2.9009,2.8977,2.8993,2.8998,2.9,2.9002,2.8962,2.902,2.9125,2.9135,2.9005,2.9004,2.9003,0,2.8771,2.8824,2.8873,2.8885,2.8906,2.8929,2.8939,2.8956,2.8974,2.8998,2.901,2.9039,2.9054,2.9076,2.9073,2.9048,2.9128,2.9093,2.9128,2.9128,2.9145,2.9143,2.9251,2.9159,2.9159,2.9158,2.9158,0,2.8861,2.8905,2.8903,2.8934,2.8982,2.8976,2.9024,2.9031,2.9046,2.9075,2.9061,2.9089,2.9085,2.9113,2.9111,2.9155,2.9163,2.9163,2.9162,2.9163,2.9163,2.9172,2.9166,2.9161,2.9161,2.916,2.916,0,2.8945,2.8947,2.8998,2.9013,2.9018,2.9052,2.9065,2.9092,2.9095,2.9133,2.9141,2.9145,2.9177,2.9177,2.9214,2.9212,2.9266,2.926,2.9259,2.9257,2.9291,2.9286,2.9407,2.9421,2.9321,2.9322,2.9323,0,2.9002,2.9035,2.9053,2.9071,2.9082,2.9113,2.9131,2.9126,2.9146,2.9169,2.9193,2.9223,2.9247,2.9299,2.9304,2.9331,2.9325,2.9365,2.9329,2.9328,2.9322,2.9319,2.9321,2.9371,2.9372,2.9373,2.9374,0,2.91,2.9098,2.9125,2.9152,2.9174,2.9195,2.9214,2.923,2.9227,2.9249,2.9281,2.9299,2.9335,2.9365,2.9391,2.9399,2.9385,2.9385,2.9394,2.9395,2.9392,2.9391,2.9275,2.9382,2.9382,2.9381,2.938,2.938,2.9171,2.9198,2.9214,2.9243,2.9257,2.9274,2.93,2.9305,2.9332,2.936,2.9356,2.9391,2.9407,2.9439,2.9451,2.9477,2.9463,2.9477,2.948,2.9482,2.9485,2.939,2.9482,2.9482,2.9482,2.9481,2.9481,0,2.9266,2.9275,2.9302,2.9328,2.9351,2.9336,2.9355,2.9375,2.9406,2.9422,2.9445,2.948,2.9508,2.9515,2.9542,2.9561,2.9555,2.9568,2.9565,2.9567,2.9498,2.9486,2.9572,2.9572,2.9572,2.9572,2.9572,2.9572,2.9318,2.9362,2.9362,2.9412,2.942,2.9454,2.9466,2.9481,2.9493,2.9533,2.9556,2.956,2.9572,2.9599,2.9623,2.9624,2.9633,2.9648,2.9647,2.9581,2.9572,2.9563,2.9552,2.9651,2.9651,2.9713,2.9714,2.9714]}]]